Stations météo

Publicité
Montauban, France (7540): Température de l'air & dewpoint: 09.11.2019 17:00:00 - 15.11.2019 17:00:00 (CET)Montauban, France (7540): Température de l'air 5cm: 09.11.2019 17:00:00 - 15.11.2019 17:00:00 (CET)Montauban, France (7540): Température de l'air -20cm & Température de l'air -100cm: 09.11.2019 17:00:00 - 15.11.2019 17:00:00 (CET)Montauban, France (7540): Vitesse du vent & gusts: 09.11.2019 17:00:00 - 15.11.2019 17:00:00 (CET)Montauban, France (7540): Direction du vent: 09.11.2019 17:00:00 - 15.11.2019 17:00:00 (CET)Montauban, France (7540): reduced air pressure: 09.11.2019 17:00:00 - 15.11.2019 17:00:00 (CET)Montauban, France (7540): visibility: 09.11.2019 17:00:00 - 15.11.2019 17:00:00 (CET)Montauban, France (7540): Ensoleillement: 09.11.2019 17:00:00 - 15.11.2019 17:00:00 (CET)Montauban, France (7540): Quantités de précipitations: 09.11.2019 17:00:00 - 15.11.2019 17:00:00 (CET)
Date & Time tt [°C] td [°C] tt 5cm [°C] tt -20cm [°C] tt -100cm [°C] ff [km/h] ff [knt] fx [km/h] fx [knt] dd ppp [hPa] vv [km] sd [min] rr [mm]
15.11.2019 17:00:00 - - - - - - - - - - - - - -
15.11.2019 16:00:00 6,6 5,1 6,4 10,3 14,5 12 6 17 9 WNW 1001,2 20 0 0,0
15.11.2019 15:00:00 7,5 5,1 7,9 10,3 14,5 9 5 14 8 NNW 1000,7 20 0 0,0
15.11.2019 14:00:00 7,8 4,9 8,7 10,3 14,5 6 3 16 9 NNW 1000,2 20 0 0,0
15.11.2019 13:00:00 7,2 5,3 6,2 10,3 14,5 8 4 13 7 NNE 999,8 20 25 0,2
15.11.2019 12:00:00 5,2 4,2 5,4 10,3 14,5 5 3 14 8 N 1000,8 7 0 1,8
15.11.2019 11:00:00 5,9 3,7 5,8 10,4 14,6 5 3 14 8 S 1000,9 20 0 0,0
15.11.2019 10:00:00 5,4 3,4 4,9 10,5 14,6 9 5 16 9 S 1000,5 20 0 0,0
15.11.2019 09:00:00 4,9 3,6 2,5 10,5 14,6 9 5 15 8 S 1000,5 20 14 0,0
15.11.2019 08:00:00 3,7 2,8 2,1 10,6 14,6 4 2 12 7 SE 1000,3 18 0 0,0
15.11.2019 07:00:00 2,9 2,0 0,9 10,7 14,6 8 4 14 8 SSE 1000,0 13 0 0,0
15.11.2019 06:00:00 2,6 1,9 0,8 10,8 14,6 7 4 12 6 SSE 999,9 8 0 0,0
15.11.2019 05:00:00 2,9 2,2 0,7 10,9 14,6 6 3 11 6 S 999,8 19 0 0,0
15.11.2019 04:00:00 2,5 1,8 0,3 10,9 14,6 9 5 11 6 S 1000,0 20 0 0,0
15.11.2019 03:00:00 2,9 2,0 0,8 11,0 14,6 0 0 8 5 N 1000,0 19 0 0,0
15.11.2019 02:00:00 2,8 1,9 0,9 11,0 14,6 5 3 7 4 S 999,7 7 0 0,0
15.11.2019 01:00:00 4,4 2,6 1,6 11,1 14,6 0 0 10 5 N 999,4 20 0 0,0
15.11.2019 00:00:00 5,6 3,8 4,9 11,1 14,6 5 3 11 6 SW 999,2 20 0 0,0
14.11.2019 23:00:00 5,8 4,4 4,5 11,1 14,6 6 3 11 6 WSW 999,1 11 0 0,0
14.11.2019 22:00:00 5,5 4,5 3,9 11,2 14,7 5 3 9 5 SSW 998,9 14 0 0,0
14.11.2019 21:00:00 6,0 4,6 4,5 11,2 14,7 6 3 12 7 S 998,7 17 0 0,0
14.11.2019 20:00:00 6,0 4,3 5,0 11,1 14,7 6 4 12 7 S 998,5 20 0 0,0
14.11.2019 19:00:00 6,9 5,0 6,1 11,1 14,7 7 4 12 7 S 998,7 20 0 0,0
14.11.2019 18:00:00 6,8 4,9 6,0 11,1 14,7 7 4 9 5 SSE 998,4 20 0 0,0
14.11.2019 17:00:00 7,6 4,7 7,5 11,0 14,7 6 3 14 7 SSE 998,3 20 0 0,0
14.11.2019 16:00:00 8,1 3,7 8,8 11,0 14,7 4 2 16 9 WSW 998,4 20 8 0,0
14.11.2019 15:00:00 8,4 4,6 8,2 11,0 14,7 8 4 13 7 W 998,9 20 12 0,0
14.11.2019 14:00:00 6,9 4,2 7,1 11,0 14,7 8 4 21 12 SSW 998,8 20 0 0,0
14.11.2019 13:00:00 6,5 4,2 6,1 11,0 14,7 11 6 18 10 S 999,4 20 0 0,0
14.11.2019 12:00:00 5,9 4,2 5,7 11,1 14,7 9 5 19 10 SSW 1001,1 20 0 0,2
14.11.2019 11:00:00 5,7 3,9 5,7 11,1 14,7 8 5 20 11 SSW 1001,8 13 0 0,0
14.11.2019 10:00:00 5,9 4,1 5,8 11,1 14,7 9 5 24 13 SSW 1001,9 20 0 0,0
14.11.2019 09:00:00 6,1 4,6 5,6 11,1 14,7 9 5 23 13 WSW 1002,3 20 0 0,4
14.11.2019 08:00:00 6,2 4,4 5,6 11,2 14,8 6 3 14 7 SW 1002,7 20 0 1,4
14.11.2019 07:00:00 6,8 5,4 6,3 11,3 14,8 7 4 16 9 WNW 1002,8 20 0 1,9
14.11.2019 06:00:00 7,2 5,8 6,7 11,3 14,8 10 5 22 12 WSW 1002,7 14 0 2,2
14.11.2019 05:00:00 7,5 6,4 6,6 11,3 14,7 5 3 22 12 SSW 1002,2 18 0 1,6
14.11.2019 04:00:00 7,1 5,4 6,4 11,4 14,8 16 9 33 18 SW 1001,9 10 0 1,4
14.11.2019 03:00:00 7,4 4,0 6,7 11,4 14,8 20 11 37 20 S 1000,7 20 0 0,0
14.11.2019 02:00:00 6,9 3,5 6,0 11,5 14,8 18 10 29 15 S 1001,6 20 0 0,0
14.11.2019 01:00:00 6,8 3,4 6,2 11,5 14,8 19 10 29 16 S 1002,7 20 0 0,0
14.11.2019 00:00:00 6,8 3,6 6,3 11,6 14,8 17 9 24 13 SSE 1003,6 20 0 0,0
13.11.2019 23:00:00 6,9 3,9 6,0 11,6 14,8 14 8 19 11 SSE 1005,2 20 0 0,0
13.11.2019 22:00:00 6,8 3,8 5,4 11,6 14,8 11 6 16 9 S 1006,8 20 0 0,0
13.11.2019 21:00:00 6,6 3,7 3,5 11,7 14,8 6 4 9 5 S 1008,0 20 0 0,0
13.11.2019 20:00:00 6,9 3,3 3,4 11,7 14,9 4 2 6 3 SSW 1009,1 20 0 0,0
13.11.2019 19:00:00 8,4 2,8 6,2 11,6 14,8 4 2 8 4 SSW 1009,8 20 0 0,0
13.11.2019 18:00:00 9,5 1,9 8,5 11,6 14,9 3 2 15 8 WSW 1009,9 20 1 0,0
13.11.2019 17:00:00 10,4 1,5 10,0 11,5 14,9 8 4 21 11 W 1010,2 20 13 0,0
13.11.2019 16:00:00 11,7 1,3 11,9 11,5 14,9 11 6 36 20 NW 1010,3 20 57 0,0
13.11.2019 15:00:00 11,6 0,4 12,1 11,4 14,9 18 10 31 17 NW 1010,1 20 51 0,0
13.11.2019 14:00:00 11,0 2,6 10,9 11,4 14,9 16 9 32 18 NNW 1010,4 20 38 0,0
13.11.2019 13:00:00 10,0 5,4 10,6 11,3 14,9 10 6 18 10 NW 1010,3 20 0 0,0
13.11.2019 12:00:00 10,3 5,7 11,8 11,3 14,9 11 6 19 11 NNW 1010,4 20 33 0,0
13.11.2019 11:00:00 9,1 6,4 10,0 11,3 14,9 6 3 12 6 NNW 1010,2 20 10 0,0
13.11.2019 10:00:00 8,5 7,3 8,5 11,3 14,9 6 4 10 5 NW 1009,5 20 4 0,0
13.11.2019 09:00:00 8,0 7,2 6,9 11,4 15,0 6 3 8 4 NW 1009,0 15 13 0,0
13.11.2019 08:00:00 7,6 6,8 7,0 11,4 15,0 0 0 7 4 N 1008,2 13 0 0,0
13.11.2019 07:00:00 7,7 6,9 7,1 11,4 15,0 2 1 6 4 NNW 1007,7 17 0 0,0
13.11.2019 06:00:00 7,6 6,8 6,5 11,4 15,0 0 0 6 4 N 1006,9 9 0 0,0
13.11.2019 05:00:00 7,9 7,1 6,8 11,4 15,0 2 1 7 4 E 1006,6 8 0 0,0
13.11.2019 04:00:00 8,1 7,3 7,7 11,5 15,0 4 2 7 4 W 1006,4 7 0 0,0
13.11.2019 03:00:00 8,2 7,4 7,0 11,5 15,0 3 2 6 3 NW 1006,6 9 0 0,0
13.11.2019 02:00:00 8,1 7,3 7,1 11,5 15,0 0 0 4 2 N 1006,2 4,8 0 0,0
13.11.2019 01:00:00 8,4 7,6 7,7 11,5 15,0 0 0 8 4 N 1006,9 9 0 0,0
13.11.2019 00:00:00 8,6 7,8 8,0 11,5 15,0 4 2 7 4 WNW 1007,2 19 0 0,0
12.11.2019 23:00:00 8,8 7,9 7,4 11,5 15,0 3 2 9 5 NW 1007,7 20 0 0,0
12.11.2019 22:00:00 8,9 8,0 7,8 11,5 15,0 5 3 8 5 W 1008,1 16 0 0,0
12.11.2019 21:00:00 9,1 8,2 8,4 11,4 15,0 4 2 13 7 WNW 1007,9 20 0 0,0
12.11.2019 20:00:00 9,0 7,9 8,4 11,4 15,1 5 3 8 5 WSW 1008,1 15 0 0,0
12.11.2019 19:00:00 8,9 7,8 8,4 11,4 15,1 5 3 11 6 WSW 1008,6 17 0 0,0
12.11.2019 18:00:00 9,1 7,9 8,8 11,3 15,1 6 4 16 8 W 1009,0 20 0 0,0
12.11.2019 17:00:00 9,4 7,8 8,9 11,3 15,1 7 4 13 7 W 1009,3 20 0 0,2
12.11.2019 16:00:00 9,5 7,9 9,3 11,2 15,1 8 4 18 10 W 1009,7 20 0 1,2
12.11.2019 15:00:00 10,0 8,3 9,4 11,1 15,1 7 4 27 14 WNW 1010,4 20 0 5,3
12.11.2019 14:00:00 11,9 8,0 12,2 11,1 15,1 10 6 24 13 NW 1010,5 20 0 0,0
12.11.2019 13:00:00 11,5 8,2 11,7 11,0 15,1 15 8 28 15 WNW 1011,5 20 5 0,0
12.11.2019 12:00:00 10,7 8,3 9,2 11,1 15,2 16 8 27 14 W 1012,5 20 19 0,0
12.11.2019 11:00:00 8,7 7,5 9,0 11,1 15,2 6 4 10 6 WNW 1013,3 12 20 0,2
12.11.2019 10:00:00 7,1 6,4 7,6 11,2 15,2 0 0 4 2 N 1013,5 19 1 0,0
12.11.2019 09:00:00 5,8 5,2 2,5 11,2 15,2 0 0 6 4 N 1013,7 11 19 0,0
12.11.2019 08:00:00 4,1 3,2 2,3 11,3 15,2 2 1 5 3 SSE 1013,7 8 0 0,0
12.11.2019 07:00:00 5,2 4,5 2,7 11,3 15,2 3 2 8 4 WSW 1013,8 19 0 0,0
12.11.2019 06:00:00 5,1 4,2 2,9 11,4 15,2 3 2 9 5 WSW 1014,7 12 0 0,0
12.11.2019 05:00:00 6,0 5,3 5,6 11,5 15,2 5 3 9 5 WSW 1014,8 15 0 0,4
12.11.2019 04:00:00 5,7 5,1 2,4 11,5 15,2 3 2 6 3 NW 1014,9 13 0 0,0
12.11.2019 03:00:00 4,2 3,5 1,3 11,6 15,3 0 0 4 2 N 1015,5 6 0 0,0
12.11.2019 02:00:00 5,0 4,0 2,0 11,6 15,3 2 1 9 5 W 1016,0 9 0 0,0
12.11.2019 01:00:00 5,7 4,7 4,6 11,7 15,3 7 4 13 7 WNW 1016,4 12 0 0,0
12.11.2019 00:00:00 5,7 4,5 4,6 11,7 15,3 6 3 9 5 WNW 1016,9 11 0 0,0
11.11.2019 23:00:00 6,3 4,5 5,0 11,7 15,3 4 2 11 6 WNW 1017,1 14 0 0,0
11.11.2019 22:00:00 7,1 4,4 6,1 11,7 15,3 8 4 16 8 W 1016,8 20 0 0,0
11.11.2019 21:00:00 7,9 5,4 7,2 11,7 15,3 8 4 28 15 WNW 1016,5 20 0 0,0
11.11.2019 20:00:00 8,5 6,1 7,9 11,6 15,3 18 10 44 24 NW 1015,3 20 0 0,0
11.11.2019 19:00:00 9,4 7,0 9,0 11,6 15,3 27 14 55 30 NW 1013,6 20 0 0,2
11.11.2019 18:00:00 9,6 8,7 9,2 11,5 15,4 7 4 15 8 WSW 1012,0 4,5 0 1,2
11.11.2019 17:00:00 10,0 7,8 9,2 11,4 15,3 4 2 7 4 WSW 1011,9 4,8 0 1,0
11.11.2019 16:00:00 10,9 6,8 9,3 11,3 15,4 4 2 9 5 WSW 1011,7 15 0 0,4
11.11.2019 15:00:00 11,8 5,6 12,5 11,2 15,4 3 2 13 7 W 1011,4 20 8 0,0
11.11.2019 14:00:00 12,0 5,2 15,9 11,1 15,4 4 2 17 9 S 1011,7 20 60 0,0
11.11.2019 13:00:00 11,1 5,0 11,8 11,1 15,4 6 3 16 8 SW 1012,9 20 30 0,0
11.11.2019 12:00:00 9,2 5,0 11,8 11,1 15,4 11 6 24 13 S 1013,9 20 37 0,0
11.11.2019 11:00:00 8,0 4,9 9,2 11,1 15,4 15 8 19 11 SSE 1014,5 20 53 0,0
11.11.2019 10:00:00 6,0 4,8 5,8 11,2 15,4 9 5 14 8 SSE 1015,4 20 7 0,0
11.11.2019 09:00:00 5,1 4,4 4,5 11,2 15,4 3 2 12 6 E 1016,2 15 4 0,0
11.11.2019 08:00:00 4,7 4,0 4,5 11,3 15,4 5 3 16 9 SSE 1016,3 12 0 0,0
11.11.2019 07:00:00 4,5 3,9 4,3 11,4 15,4 9 5 15 8 SSE 1016,2 8 0 0,0
11.11.2019 06:00:00 4,1 3,4 3,4 11,4 15,4 2 1 6 3 S 1017,0 18 0 0,0
11.11.2019 05:00:00 3,3 2,7 2,5 11,5 15,4 3 1 6 4 E 1017,2 17 0 0,0
11.11.2019 04:00:00 3,0 2,4 0,0 11,6 15,5 2 1 7 4 NW 1017,5 17 0 0,0
11.11.2019 03:00:00 2,5 1,8 0,3 11,7 15,5 2 1 3 2 ENE 1017,7 19 0 0,0
11.11.2019 02:00:00 2,4 1,5 0,2 11,8 15,5 0 0 6 4 N 1017,8 18 0 0,0
11.11.2019 01:00:00 3,3 2,3 0,2 11,9 15,5 0 0 7 4 N 1018,3 18 0 0,0
11.11.2019 00:00:00 4,3 3,1 1,1 11,9 15,5 3 2 9 5 WSW 1017,6 19 0 0,0
10.11.2019 23:00:00 3,8 2,9 0,8 12,0 15,5 4 2 7 4 WSW 1017,1 10 0 0,0
10.11.2019 22:00:00 4,8 3,5 2,3 12,1 15,5 2 1 10 5 WSW 1017,2 14 0 0,0
10.11.2019 21:00:00 5,8 4,0 3,2 12,1 15,6 4 2 15 8 W 1017,4 20 0 0,0
10.11.2019 20:00:00 5,9 3,6 3,0 12,1 15,5 4 2 14 8 WSW 1016,9 17 0 0,0
10.11.2019 19:00:00 6,7 3,7 4,3 12,1 15,5 6 4 15 8 WNW 1016,2 20 0 0,0
10.11.2019 18:00:00 7,5 4,6 5,0 12,1 15,6 6 3 8 5 W 1015,2 18 0 0,0
10.11.2019 17:00:00 9,1 4,7 9,0 12,0 15,6 4 2 12 7 WNW 1014,1 20 13 0,0
10.11.2019 16:00:00 9,8 2,9 10,0 12,0 15,6 9 5 25 14 NNW 1013,2 20 22 0,0
10.11.2019 15:00:00 10,7 3,9 10,7 11,9 15,6 9 5 16 8 WNW 1012,6 20 12 0,0
10.11.2019 14:00:00 10,3 3,3 11,8 11,9 15,6 9 5 18 10 NNW 1012,8 20 22 0,0
10.11.2019 13:00:00 10,3 4,6 10,5 11,9 15,6 10 5 18 10 WNW 1013,0 20 14 0,0
10.11.2019 12:00:00 9,6 5,4 9,6 11,9 15,6 8 5 19 11 W 1013,4 20 22 0,0
10.11.2019 11:00:00 8,4 4,8 9,2 12,0 15,6 11 6 17 9 WNW 1013,6 20 26 0,0
10.11.2019 10:00:00 7,8 5,3 6,5 12,0 15,6 7 4 14 8 WSW 1013,3 20 36 0,0
10.11.2019 09:00:00 5,3 4,4 2,2 12,2 15,6 3 1 5 3 W 1013,1 20 0 0,0
10.11.2019 08:00:00 4,4 2,9 2,4 12,2 15,6 3 2 8 5 WSW 1012,8 18 0 0,0
10.11.2019 07:00:00 5,2 3,7 2,6 12,3 15,7 8 4 14 7 W 1012,4 20 0 0,0
10.11.2019 06:00:00 5,1 3,6 3,6 12,4 15,7 6 3 11 6 W 1012,6 20 0 0,0
10.11.2019 05:00:00 5,7 4,0 3,8 12,4 15,7 6 4 13 7 WSW 1012,1 20 0 0,0
10.11.2019 04:00:00 6,5 4,2 5,3 12,5 15,7 9 5 26 14 W 1011,9 20 0 0,0
10.11.2019 03:00:00 7,7 5,3 6,6 12,5 15,7 13 7 26 14 W 1012,1 20 0 0,2
10.11.2019 02:00:00 8,5 6,3 7,8 12,5 15,7 9 5 27 15 W 1012,1 20 0 0,0
10.11.2019 01:00:00 9,2 6,8 8,3 12,5 15,7 16 9 29 16 W 1011,5 19 0 0,0
10.11.2019 00:00:00 9,6 8,0 8,9 12,5 15,7 14 8 26 14 WNW 1011,0 18 0 0,0
09.11.2019 23:00:00 9,9 7,7 9,0 12,5 15,7 14 8 27 15 WNW 1010,6 20 0 0,0
09.11.2019 22:00:00 9,6 8,4 8,6 12,5 15,8 10 6 17 9 W 1009,8 20 0 0,0
09.11.2019 21:00:00 9,1 7,5 8,2 12,5 15,7 9 5 28 15 SSW 1009,4 8 0 1,2
09.11.2019 20:00:00 8,8 7,2 8,4 12,5 15,8 16 9 24 13 S 1009,7 9 0 3,0
09.11.2019 19:00:00 9,9 7,1 8,7 12,4 15,8 7 4 12 6 S 1010,5 17 0 0,4
09.11.2019 18:00:00 11,0 6,1 10,3 12,3 15,8 5 3 8 4 SSW 1010,5 20 0 0,0
09.11.2019 17:00:00 11,1 6,2 11,0 12,2 15,8 5 3 11 6 SSE 1010,9 20 0 0,0

tt = Température de l'air
td = dewpoint
tt 5cm = Température de l'air 5cm
tt -20cm = Température de l'air -20cm
tt -100cm = Température de l'air -100cm
ff = Vitesse du vent
fx = gusts
dd = Direction du vent
ppp = reduced air pressure
vv = visibility
sd = Ensoleillement
rr = Quantités de précipitations

stations d'obs. à proximité